www.pogodaiklimat.ru

Погода и климат >> Архив погоды >> Болгария >> Варна


АРХИВ ПОГОДЫ в Варне

Время (UTC), дата Ветер
(напр.,м/с)
 
Видим.   Явления Облачность Т
(С)
Тd
(С)
f
(%)
Тe
(С)
Тes
(С)
Комфортность P
(гПа)
Po
(гПа)
Тmin
(С)
Tmax
(С)
R
(мм)
R24
(мм)
S
(см)
03 10.07 штиль 0 20 км 10/4 600 м
[Sc Ac As]
+20.8 +16.2 75 +24 +24 комфорт 1009.9 1005.3 +20.8 +24.2
06 10.07 штиль 0 15 км 9/9 600 м
[Sc]
+23.1 1009.9 1005.3 +20.3 +24.2
09 10.07 штиль 0 15 км слаб. ливневой дождь 10/10 600 м
[Cu Sc]
+23.9 +15.3 59 +27 +27 жарко 1010.2 1005.6 +23.1 +24.5 709
12 10.07 З 1 20 км {ливн. осадки} 6/6 600 м
[Cu Sc]
+25.3 +14.2 50 +28 +35 жарко 1009.6 1005.0 +22.9 +25.3 0.0 0
15 10.07 З 3 20 км 10/10 600 м
[Cu Sc]
+23.6 +14.5 57 +26 +26 жарко 1008.6 1004.0 +22.9 +26.0
18 10.07 З 2 20 км {ливн. осадки} 10/10 600 м
[Cu Sc]
+21.1 +14.8 67 +24 +24 комфорт 1008.3 1003.7 +21.0 +26.0 0.0 0
21 10.07 З 3 15 км слаб. ливневой дождь 10/10 300 м
[Cb calv]
+19.4 +15.0 76 +21 +21 комфорт 1009.0 1004.3 +19.0 +21.1 0.9
00 11.07 СЗ 5 15 км {ливн. осадки} 10/10 300 м
[Cu Sc]
+17.5 +13.1 75 +17 +17 прохладно 1008.7 1004.0 +17.5 +21.1 0.8 750
03 11.07 С 2 20 км 9/9 300 м
[Cu Sc]
+16.7 +12.6 77 +17 +17 прохладно 1008.6 1003.9 +16.7 +21.1
06 11.07 С 2 25 км 10/3 300 м
[Sc As trans Cs]
+19.0 1009.7 1005.0 +16.2 +21.1 0.8
09 11.07 С 2 25 км 3/1 300 м
[Cu med, cong Cs]
+23.4 +11.1 46 +26 +41 жарко 1009.6 1005.0 +19.0 +23.4 2
12 11.07 С 2 50 км 5/5 300 м
[Cu med, cong]
+26.2 1008.9 1004.3 +19.0 +26.2
15 11.07 СЗ 2 50 км 5/5 300 м
[Cu med, cong]
+24.9 +9.9 39 +26 +28 жарко 1009.4 1004.8 +19.0 +26.4
18 11.07 штиль 0 30 км 5/5 600 м
[Cu Sc]
+21.8 1010.3 1005.7 +19.0 +26.4
21 11.07 штиль 0 20 км 3/3 600 м
[Sc]
+19.6 +14.6 73 +21 +21 комфорт 1010.8 1006.1 +19.6 +21.8
00 12.07 штиль 0 20 км зарница ясно +17.7 1010.8 1006.1 +17.7 +21.8
03 12.07 С 3 20 км 3/3 600 м
[Cu med, cong]
+16.9 +11.0 68 +17 +17 прохладно 1010.8 1006.1 +16.6 +21.8
06 12.07 З 1 20 км 3/3 300 м
[Cu med, cong Ac trans]
+19.9 1011.5 1006.8 +16.3 +21.8
09 12.07 В 3 20 км 5/5 300 м
[Cu med, cong]
+23.4 +13.4 53 +27 +34 душно 1011.0 1006.4 +19.9 +23.9
12 12.07 В 2 20 км 6/6 600 м
[Cu med, cong]
+24.0 1010.7 1006.1 +19.9 +24.9
15 12.07 В 2 20 км 6/6 600 м
[Cu med, cong]
+21.8 +14.7 64 +25 +27 комфорт 1011.3 1006.7 +19.9 +25.6
18 12.07 штиль 0 20 км 1/1 300 м
[Cu med, cong]
+19.6 1011.7 1007.0 +19.6 +25.6
21 12.07 З 1 10 км ясно +18.6 +13.7 73 +20 +20 по сезону 1012.2 1007.5 +18.6 +19.6
00 13.07 штиль 0 10 км ясно +17.6 1011.9 1007.2 +17.6 +19.6
03 13.07 З 1 20 км 1/1 300 м
[Cu med, cong]
+16.6 +13.8 84 +17 +18 прохладно 1011.5 1006.8 +15.8 +19.6
06 13.07 З 1 20 км 3/3 300 м
[Cu med, cong Ci]
+22.2 1011.7 1007.1 +15.8 +22.6
09 13.07 В 2 20 км 5/4 300 м
[Cu med, cong Ci fib]
+27.4 +17.6 55 +32 +42 очень
душно
1011.5 1006.9 +22.0 +27.5
12 13.07 В 3 20 км 8/8 300 м
[Cu Sc]
+26.4 1011.1 1006.5 +22.0 +28.0
15 13.07 В 4 20 км 6/4 300 м
[Sc Ac lent]
+24.8 +15.6 57 +28 +29 жарко 1011.3 1006.7 +22.0 +28.0
18 13.07 В 2 20 км 8/3 600 м
[Sc Ac trans Ci fib]
+22.3 1009.9 1005.3 +22.0 +28.0
21 13.07 В 2 20 км 8/3 600 м
[Sc Ac trans Cs]
+22.2 +15.9 67 +26 +26 душно 1009.7 1005.1 +21.4 +22.4
00 14.07 ЮЗ 1 15 км 8/4 600 м
[Sc Ac trans Cs]
+19.5 1008.6 1003.9 +19.5 +22.4
03 14.07 штиль 0 20 км 9/5 600 м
[Sc Ac und]
+19.0 +16.3 84 +20 +20 по сезону 1007.2 1002.5 +18.7 +22.4
06 14.07 В 2 20 км 9/8 600 м
[Cu Sc As trans]
+23.0 1006.9 1002.3 +18.5 +23.0
09 14.07 З 3 20 км 10/8 300 м
[Cu med, cong As trans]
+21.1 +15.6 71 +24 +25 комфорт 1007.3 1002.7 +20.6 +25.2
12 14.07 З 2 20 км слаб. ливневой дождь 10/10 300 м
[Cb calv]
+21.1 +16.1 73 +24 +24 комфорт 1006.9 1002.3 +19.5 +25.2 0.8 183 360
15 14.07 СЗ 3 20 км слаб. дождь 10/0 300 м
[As op]
+20.0 +16.7 81 +23 +24 комфорт 1006.9 1002.3 +19.5 +25.2
18 14.07 СЗ 4 20 км {ливн. осадки, дождь} 10/4 300 м
[Sc diur, vesp As op]
+19.4 +13.9 70 +21 +21 комфорт 1006.7 1002.0 +19.4 +25.2 1 230
21 14.07 СЗ 4 10 км в посл. час ливневой дождь 10/8 300 м
[Cb calv Ac und]
+17.0 +14.9 87 +17 +17 прохладно 1007.1 1002.4 +16.4 +19.4 519
00 15.07 С 5 10 км {ливн. осадки} 8/8 600 м
[Sc]
+17.1 +14.5 85 +16 +16 прохладно 1006.8 1002.1 +16.4 +19.4 15 120
03 15.07 З 2 20 км 4/0
[Ac lent Ci]
+16.4 +14.3 87 +16 +16 холодно 1006.8 1002.1 +16.4 +19.4
06 15.07 З 3 20 км 3/3 300 м
[Cu med, cong]
+20.0 1007.9 1003.2 +16.0 +20.0 15
09 15.07 З 3 20 км 5/5 300 м
[Cu med, cong]
+23.5 +14.2 56 +26 +34 жарко 1007.9 1003.3 +20.0 +24.4
12 15.07 ЮВ 1 20 км 5/5 600 м
[Cu med, cong]
+25.3 1008.3 1003.7 +20.0 +26.5
15 15.07 В 1 20 км 5/5 300 м
[Cu med, cong]
+23.5 +16.5 65 +27 +30 душно 1008.0 1003.4 +20.0 +26.5
18 15.07 В 1 20 км 8/8 300 м
[Cu Sc]
+21.9 1008.4 1003.8 +20.0 +26.5
21 15.07 штиль 0 20 км 8/4 300 м
[Cu Sc As trans]
+20.3 +16.3 78 +23 +23 комфорт 1009.4 1004.7 +20.2 +21.9
00 16.07 З 1 20 км 8/6 600 м
[Sc Ac trans]
+19.6 1009.2 1004.5 +19.4 +21.9
03 16.07 З 1 20 км 8/5 600 м
[Cu Sc Ac trans]
+18.2 +14.8 81 +20 +20 по сезону 1009.4 1004.7 +17.4 +21.9
06 16.07 З 2 20 км 4/3 600 м
[Cu med, cong Ac trans Ci fib]
+20.2 1010.1 1005.4 +17.4 +21.9
09 16.07 ЮВ 2 20 км 6/5 600 м
[Cu med, cong Ci fib]
+25.2 +17.4 62 +29 +38 душно 1010.1 1005.5 +20.0 +25.5
12 16.07 штиль 0 20 км в посл. час ливневой дождь 8/6 600 м
[Cu med, cong Ac trans]
+22.6 +17.1 71 +27 +33 душно 1009.9 1005.3 +20.0 +26.7 0.8 310
15 16.07 В 1 20 км 8/4 600 м
[Sc diur, vesp Ac trans Ci fib]
+24.2 +16.6 63 +28 +30 душно 1009.3 1004.7 +20.0 +26.7
18 16.07 В 1 20 км 8/4 600 м
[Sc Ac trans Ci fib]
+20.6 1009.6 1005.0 +20.0 +26.7 0.8
21 16.07 З 2 20 км ясно +19.2 +15.5 79 +21 +21 комфорт 1010.2 1005.5 +19.2 +20.6
00 17.07 В 1 20 км 4/0
[Ci sp]
+19.6 1010.2 1005.5 +17.2 +20.6

 

Местоположение метеостанции Варна (Болгария): широта 43.20 долгота 27.92 высота над уровнем моря 43 м.

В архиве по умолчанию представлена погода в Варне за последнюю неделю. Архивные данные за месяц целиком и за предыдущие месяцы, начиная с января 2011 года, Вы можете получить, выбрав интересующий диапазон дат из раскрывающегося списка и нажав кнопку "Ввод!".


*Определитесь, кто Вы:
робот инопланетянин человек

Внимание! Время в таблицах - всемирное. Для получения местного времени необходимо прибавить поправку, которая равна 2 ч.

Смотрите также архив погоды в соседних городах и на ближайших метеорологических станциях:

Погода в Мангалии (Румыния) (87 км)
Погода в Бургасе (Болгария) (88 км)
Погода в Адамклиси (Румыния) (98 км)
Погода в Разграде (Болгария) (118 км)
Погода в Меджидии (Румыния) (120 км)
Погода в Кэлэраши (Румыния) (121 км)
Погода в Констанце (Румыния) (128 км)
Погода в Чернаводэ (Румыния) (128 км)
Погода в Фетешти (Румыния) (130 км)
Погода в Олтенице (Румыния) (142 км)

Пояснения к столбцам:

Ветер - указаны скорость ветра в м/с - средняя за 10 мин, порывы в срок и между сроками (в фигурных скобках) и направление, откуда дует ветер: С - северный, СВ - северо-восточный, В - восточный, ЮВ - юго-восточный, Ю - южный, ЮЗ - юго-западный, З - западный, СЗ - северо-западный.
Видимость - горизонтальная дальность видимости в метрах или километрах. При видимости от 1 до 10 км при отсутствии осадков обычно наблюдается дымка, при ухудшении видимости до 1 км и менее - туман. В сухую погоду видимость может ухудшаться дымом, пылью или мглою.
Явления - указаны атмосферные явления, наблюдавшиеся в срок или в последний час перед сроком; фигурными скобками обозначены явления, наблюдавшиеся между сроками (за 1-3 часа до срока); квадратными скобками обозначены град или гололедные отложения с указанием их диаметра в мм.
Облачность - указаны через наклонную черту общая и нижняя облачность в баллах и высота нижней границы облаков в метрах; квадратными скобками обозначены формы облаков: Ci - перистые, Cs - перисто-слоистые, Cc - перисто-кучевые, Ac - высококучевые, As - высокослоистые, Sc - слоисто-кучевые, Ns - слоисто-дождевые, Cu - кучевые, Cb - кучево-дождевые. Подробнее классификацию облаков см. в Атласе облаков (PDF).
T - Температура воздуха - температура, измеренная на высоте 2 м над землей.
Td - Температура точки росы - температура, при понижении до которой содержащийся в воздухе водяной пар достигнет насыщения.
f - Относительная влажность воздуха - влажноcть воздуха, измеренная на высоте 2 м над землей.
Te - Эффективная температура - температура, которую ощущает одетый по сезону человек в тени. Характеристика душности погоды. При расчете учитывается влияние влажности воздуха и скорости ветра на теплоощущения человека.
Tes - Эффективная температура на солнце - температура, которую ощущает человек, с поправкой на солнечный нагрев. Характеристика знойности погоды. Зависит от высоты солнца над горизонтом, облачности и скорости ветра. Ночью, в пасмурную погоду, а также при ветре 12 м/с и более поправка равна нулю.
P - Атмосферное давление - приведенное к уровню моря атмосферное давление.
Po - Атмосферное давление - измеренное на уровне метеостанции атмосферное давление.
Tmin - Минимальная температура - минимум температуры воздуха на высоте 2 м над землей.
Tmax - Максимальная температура - максимум температуры воздуха на высоте 2 м над землей.
R - Количество осадков - Количество выпавших осадков за период времени, мм. При наведении курсора мыши на число - период времени, за который выпало указанное количество осадков.
R24 - Количество осадков - Количество выпавших осадков за 24 часа, мм.
S - Снежный покров - Высота снежного покрова, см. При наведении курсора мыши на число - состояние снежного покрова и степень покрытия местности в баллах.